CCA1052 ZGGG-WMKP

Flight info

Callsign CCA1052
Flight time N/A
Altitude 34000
Route VIBOS1 VIBOS R473 SIERA DCT MULET DCT ALLEY V32 EPDOS L642 EPKAL/K0865F340 L642 CN M765 BITOD/N0462F340 M765 VKB W546 BETNU BETNU1F
Aircraft A321/M-SDE3FGHIRWY/LB1

Departure

Time 2026-05-05 03:31
Airport Guangzhou Baiyun International Airport (ZGGG)

Arrival

Time N/A
Airport Penang International Airport (WMKP)
Time Latitude Longitude Altitude Speed Heading
2026-05-05 03:08 23.38335 113.30059 54 ft 0 kts 46°
2026-05-05 03:18 23.38333 113.30057 54 ft 3 kts 46°
2026-05-05 03:18 23.38320 113.30042 51 ft 3 kts 46°
2026-05-05 03:18 23.38307 113.30027 51 ft 3 kts 46°
2026-05-05 03:19 23.38281 113.29998 51 ft 3 kts 61°
2026-05-05 03:19 23.38278 113.29979 48 ft 3 kts 122°
2026-05-05 03:19 23.38281 113.29973 48 ft 0 kts 137°
2026-05-05 03:22 23.38277 113.29976 48 ft 2 kts 145°
2026-05-05 03:22 23.38263 113.29985 54 ft 4 kts 146°
2026-05-05 03:22 23.38235 113.30007 54 ft 6 kts 144°
2026-05-05 03:22 23.38187 113.30050 54 ft 8 kts 129°
2026-05-05 03:23 23.38164 113.30112 54 ft 10 kts 108°
2026-05-05 03:23 23.38144 113.30191 54 ft 12 kts 102°
2026-05-05 03:23 23.38112 113.30265 54 ft 10 kts 146°
2026-05-05 03:23 23.38048 113.30262 54 ft 9 kts 194°
2026-05-05 03:24 23.37996 113.30247 54 ft 7 kts 195°
2026-05-05 03:24 23.37954 113.30235 54 ft 5 kts 195°
2026-05-05 03:24 23.37923 113.30226 54 ft 5 kts 195°
2026-05-05 03:24 23.37888 113.30216 54 ft 11 kts 194°
2026-05-05 03:25 23.37798 113.30192 54 ft 13 kts 193°
2026-05-05 03:25 23.37714 113.30210 54 ft 12 kts 151°
2026-05-05 03:25 23.37650 113.30258 54 ft 11 kts 134°
2026-05-05 03:25 23.37622 113.30324 54 ft 9 kts 103°
2026-05-05 03:26 23.37603 113.30411 55 ft 20 kts 103°
2026-05-05 03:26 23.37568 113.30574 56 ft 23 kts 103°
2026-05-05 03:26 23.37531 113.30727 55 ft 10 kts 114°
2026-05-05 03:26 23.37482 113.30726 55 ft 7 kts 210°
2026-05-05 03:27 23.37445 113.30706 51 ft 7 kts 202°
2026-05-05 03:27 23.37372 113.30681 55 ft 16 kts 194°
2026-05-05 03:27 23.37231 113.30644 55 ft 24 kts 193°
2026-05-05 03:27 23.37086 113.30606 55 ft 19 kts 193°
2026-05-05 03:28 23.36993 113.30617 53 ft 12 kts 135°
2026-05-05 03:28 23.36979 113.30654 54 ft 0 kts 108°
2026-05-05 03:29 23.36976 113.30666 52 ft 5 kts 105°
2026-05-05 03:29 23.36966 113.30737 56 ft 13 kts 91°
2026-05-05 03:29 23.37022 113.30791 55 ft 11 kts 11°
2026-05-05 03:30 23.37049 113.30798 51 ft 0 kts 13°
2026-05-05 03:30 23.37052 113.30799 55 ft 3 kts 13°
2026-05-05 03:30 23.37273 113.30858 52 ft 68 kts 14°
2026-05-05 03:30 23.37927 113.31036 54 ft 126 kts 14°
2026-05-05 03:31 23.38947 113.31313 52 ft 170 kts 14°
2026-05-05 03:31 23.40134 113.31638 421 ft 179 kts 14°
2026-05-05 03:31 23.41353 113.31963 1007 ft 182 kts 14°
2026-05-05 03:31 23.42595 113.32282 1420 ft 188 kts 13°
2026-05-05 03:32 23.43929 113.32617 1547 ft 207 kts 13°
2026-05-05 03:32 23.45391 113.32986 1692 ft 226 kts 13°
2026-05-05 03:32 23.46990 113.33393 1956 ft 243 kts 14°
2026-05-05 03:32 23.48643 113.33814 2647 ft 245 kts 14°
2026-05-05 03:33 23.50320 113.34243 3299 ft 250 kts 14°
2026-05-05 03:33 23.52024 113.34682 3945 ft 253 kts 13°
2026-05-05 03:33 23.53749 113.35128 4599 ft 256 kts 12°
2026-05-05 03:33 23.55447 113.35755 5211 ft 261 kts 29°
2026-05-05 03:34 23.56842 113.37030 5779 ft 266 kts 52°
2026-05-05 03:34 23.57624 113.38864 6299 ft 272 kts 83°
2026-05-05 03:34 23.57626 113.40936 6801 ft 277 kts 94°
2026-05-05 03:34 23.57694 113.43051 7343 ft 282 kts 88°
2026-05-05 03:35 23.57830 113.45165 7873 ft 285 kts 87°
2026-05-05 03:35 23.57980 113.47332 8425 ft 289 kts 87°
2026-05-05 03:35 23.58138 113.49525 8989 ft 292 kts 88°
2026-05-05 03:35 23.58300 113.51743 9565 ft 295 kts 88°
2026-05-05 03:36 23.58467 113.53982 10102 ft 298 kts 89°
2026-05-05 03:36 23.58317 113.56217 10594 ft 295 kts 109°
2026-05-05 03:36 23.57505 113.58255 11072 ft 291 kts 129°
2026-05-05 03:36 23.56133 113.59896 11234 ft 299 kts 149°
2026-05-05 03:37 23.54288 113.61000 11369 ft 310 kts 161°
2026-05-05 03:37 23.52256 113.61998 11492 ft 328 kts 161°
2026-05-05 03:37 23.50118 113.63050 11614 ft 346 kts 160°
2026-05-05 03:37 23.47872 113.64167 11737 ft 363 kts 160°
2026-05-05 03:38 23.45571 113.65327 12057 ft 372 kts 160°
2026-05-05 03:38 23.43211 113.66527 12530 ft 376 kts 160°
2026-05-05 03:38 23.40829 113.67739 13027 ft 380 kts 160°
2026-05-05 03:38 23.38419 113.68945 13491 ft 382 kts 162°
2026-05-05 03:39 23.35862 113.69623 13939 ft 376 kts 181°
2026-05-05 03:39 23.33286 113.69396 14380 ft 369 kts 199°
2026-05-05 03:39 23.30936 113.68337 14849 ft 364 kts 216°
2026-05-05 03:39 23.29012 113.66596 15295 ft 360 kts 231°
2026-05-05 03:40 23.27632 113.64342 15724 ft 359 kts 243°
2026-05-05 03:40 23.26439 113.61969 16179 ft 360 kts 242°
2026-05-05 03:40 23.25172 113.59576 16628 ft 362 kts 240°
2026-05-05 03:40 23.23873 113.57228 17061 ft 364 kts 240°
2026-05-05 03:41 23.22562 113.54905 17474 ft 365 kts 240°
2026-05-05 03:41 23.21229 113.52548 17888 ft 367 kts 240°
2026-05-05 03:41 23.19895 113.50180 18288 ft 369 kts 240°
2026-05-05 03:41 23.18564 113.47804 18632 ft 370 kts 240°
2026-05-05 03:42 23.17224 113.45395 18936 ft 372 kts 240°
2026-05-05 03:42 23.15880 113.42968 19218 ft 375 kts 240°
2026-05-05 03:42 23.14527 113.40529 19512 ft 378 kts 240°
2026-05-05 03:42 23.13141 113.38078 19859 ft 380 kts 240°
2026-05-05 03:43 23.11736 113.35634 20196 ft 382 kts 240°
2026-05-05 03:43 23.10315 113.33176 20519 ft 384 kts 240°
2026-05-05 03:43 23.08892 113.30713 20825 ft 386 kts 240°
2026-05-05 03:43 23.07482 113.28267 21119 ft 387 kts 240°
2026-05-05 03:44 23.06047 113.25774 21427 ft 390 kts 240°
2026-05-05 03:44 23.04295 113.23503 21710 ft 398 kts 225°
2026-05-05 03:44 23.01958 113.21842 21987 ft 410 kts 209°
2026-05-05 03:44 22.99165 113.20989 22250 ft 426 kts 192°
2026-05-05 03:45 22.96151 113.21137 22510 ft 443 kts 173°
2026-05-05 03:45 22.93164 113.22098 22767 ft 451 kts 168°
2026-05-05 03:45 22.90162 113.23148 23025 ft 454 kts 168°
2026-05-05 03:45 22.87149 113.24205 23303 ft 456 kts 168°
2026-05-05 03:46 22.84122 113.25264 23571 ft 458 kts 168°
2026-05-05 03:46 22.81111 113.26311 23786 ft 460 kts 168°
2026-05-05 03:46 22.78048 113.27373 23998 ft 462 kts 168°
2026-05-05 03:46 22.74979 113.28437 24210 ft 464 kts 168°
2026-05-05 03:47 22.71899 113.29505 24427 ft 465 kts 168°
2026-05-05 03:47 22.68810 113.30576 24645 ft 467 kts 168°
2026-05-05 03:47 22.65698 113.31653 24861 ft 468 kts 168°
2026-05-05 03:47 22.62586 113.32729 25075 ft 470 kts 168°
2026-05-05 03:48 22.59465 113.33808 25267 ft 472 kts 168°
2026-05-05 03:48 22.56329 113.34891 25497 ft 472 kts 168°
2026-05-05 03:48 22.53193 113.35974 25730 ft 474 kts 168°
2026-05-05 03:48 22.50038 113.37063 25985 ft 476 kts 168°
2026-05-05 03:49 22.46884 113.38151 26224 ft 477 kts 168°
2026-05-05 03:49 22.43716 113.39242 26404 ft 479 kts 168°
2026-05-05 03:49 22.40542 113.40334 26608 ft 480 kts 168°
2026-05-05 03:49 22.37362 113.41428 26794 ft 481 kts 168°
2026-05-05 03:50 22.34156 113.42534 26988 ft 482 kts 168°
2026-05-05 03:50 22.30997 113.43624 27195 ft 484 kts 168°
2026-05-05 03:50 22.27781 113.44730 27445 ft 484 kts 168°
2026-05-05 03:50 22.24572 113.45833 27695 ft 485 kts 168°
2026-05-05 03:51 22.21352 113.46939 27930 ft 486 kts 168°
2026-05-05 03:51 22.18135 113.48079 28185 ft 488 kts 167°
2026-05-05 03:51 22.14910 113.49260 28445 ft 490 kts 166°
2026-05-05 03:51 22.11681 113.50463 28782 ft 490 kts 166°
2026-05-05 03:52 22.08470 113.51665 29150 ft 489 kts 166°
2026-05-05 03:52 22.05260 113.52860 29483 ft 488 kts 167°
2026-05-05 03:52 22.02046 113.54048 29751 ft 487 kts 167°
2026-05-05 03:52 21.98870 113.55290 30000 ft 490 kts 162°
2026-05-05 03:53 21.95805 113.56970 30199 ft 494 kts 156°
2026-05-05 03:53 21.92810 113.58796 30408 ft 494 kts 155°
2026-05-05 03:53 21.89814 113.60626 30638 ft 494 kts 155°
2026-05-05 03:53 21.86865 113.62431 30897 ft 493 kts 155°
2026-05-05 03:54 21.83881 113.64257 31109 ft 493 kts 155°
2026-05-05 03:54 21.80900 113.66078 31324 ft 492 kts 156°
2026-05-05 03:54 21.77913 113.67899 31567 ft 492 kts 156°
2026-05-05 03:54 21.74930 113.69715 31806 ft 491 kts 156°
2026-05-05 03:55 21.71948 113.71530 32030 ft 491 kts 156°
2026-05-05 03:55 21.69010 113.73321 32255 ft 491 kts 156°
2026-05-05 03:55 21.66029 113.75136 32556 ft 491 kts 156°
2026-05-05 03:55 21.63044 113.76936 32881 ft 488 kts 159°
2026-05-05 03:56 21.59955 113.78364 33166 ft 478 kts 168°
2026-05-05 03:56 21.56766 113.79260 33396 ft 470 kts 176°
2026-05-05 03:56 21.53552 113.79635 33607 ft 462 kts 185°
2026-05-05 03:56 21.50355 113.79592 33812 ft 458 kts 187°
2026-05-05 03:57 21.47203 113.79507 33976 ft 459 kts 187°
2026-05-05 03:57 21.44012 113.79425 34011 ft 457 kts 187°
2026-05-05 03:57 21.37670 113.79273 34010 ft 456 kts 187°
2026-05-05 03:58 21.31313 113.79132 33989 ft 456 kts 187°
2026-05-05 03:58 21.24954 113.78986 34002 ft 456 kts 187°
2026-05-05 03:59 21.18596 113.78833 34015 ft 456 kts 187°
2026-05-05 03:59 21.12272 113.78679 34002 ft 457 kts 187°
2026-05-05 04:00 21.05921 113.78436 34009 ft 454 kts 190°
2026-05-05 04:00 20.99655 113.77757 33997 ft 452 kts 192°
2026-05-05 04:01 20.93399 113.76919 33991 ft 453 kts 192°
2026-05-05 04:01 20.87127 113.76159 33988 ft 454 kts 191°
2026-05-05 04:02 20.80839 113.75465 33989 ft 455 kts 191°
2026-05-05 04:02 20.74539 113.74778 33991 ft 455 kts 191°
2026-05-05 04:03 20.68282 113.74083 33976 ft 455 kts 191°
2026-05-05 04:03 20.61971 113.73372 33981 ft 456 kts 191°
2026-05-05 04:04 20.55661 113.72660 33980 ft 456 kts 191°
2026-05-05 04:04 20.49343 113.71965 33986 ft 457 kts 191°
2026-05-05 04:05 20.42994 113.71266 33988 ft 457 kts 191°